Aeroporto :
LOGIN :

Iscrizione | Disclaimer

   EN    FR    IT 

 










Sommario :    VFR   VFR Marginale   IFR   IFR Intensivo   IFR Molto Intensivo
Visibilità : 
Base nubi : 
>= 8 km
>= 3000ft
5 / 8 km
1000 / 3000 ft
1500m / 5 km
500 / 1000 ft
800 / 1500m
200 / 500 ft
< 800m
< 200 ft
Simboli :   Temporali  Nebbia  Neve Forte  Precipitazioni Forti  Vento > 20 kt
SIGMETs :   Varie  Temporali  Ghiacco  Turbolenza  Onda orograficha  Ceneri Vulcaniche







- Altitudine del aeroporto : 574 ft
- Codice IATA : NDR


GMMW - Nador El Aroui

ULTIMO METAR :
  • 161900Z VRB02KT 9999 FEW020 SCT030 10/06 Q1018 NOSIG

METARs OBSOLETI :
  • 161800Z 31005KT 9999 FEW020 SCT030 12/07 Q1018 NOSIG
  • 161700Z 34006KT 9999 FEW020 BKN200 14/07 Q1017 NOSIG

TAF TAF GMMW
Valido dal 16 a 18 ore il 18 a 00 ore UTC


161700Z 1618/1724 32006KT 9999 FEW020 BKN200
Nessun NOTAM noto per questo aeroporto.



MetMap, La meteo Aeronautica in un colpo d'occhio ! - Copyright ORBIFLY Dicembre 2007 - Disclaimer

ORBIFLY MET'MAP TEAM :

Programmazione e sviluppo : Alexandra Zaïnal
Concezione e sviluppo : Baudouin d'Aumeries
Co-Programmazione e sviluppo : Marc-Olivier Méhu
Supporto tecnico e logistico : Manuel Goepfert
Aiuto per la traduzione : Arnaldo La Scala

Contatto : metmap@orbifly.com




FONTI E CREDITI :

   NOAA